Volver al catálogo

SL-8 R/B

ActivoLEO
NORAD 10591·ROCKET BODY·🇷🇺 Russia

Lanzado Jan 10, 1978 desde Plesetsk Cosmodrome

Loading…

Próximos Pases (próximas 24 horas)

TLE

ActualizadoSource: Space-Track

Época: Sep 14, 2026, 12:29 UTC

1 10591U 78005J   26257.52061637 -.00000073  00000-0 -52900-3 0  9999
2 10591  74.0326 284.8821 0144634  40.8377 126.9933 12.23349460744253

Sigue SL-8 R/B en tiempo real con AllMySat

Download on the App Store